Flag for Canada Weather past 2 weeks in Happy Valley-Goose Bay, Newfoundland and Labrador, Canada

Now
46 °F

Passing clouds.


Feels Like: 40 °F
Forecast: 31 / 43 °F
Wind: 14 mph from Northeast

Location: Goose

Current Time: Oct 24, 2014 at 4:01:09 PM

Latest Report: Oct 24, 2014 at 3:00 PM


Visibility: 15 mi

Pressure: 30.05 "Hg

Humidity: 53%

Dew point: 30 °F

Location of Happy Valley-Goose BayLocation

Historic Weather in Happy Valley-Goose Bay — Graph

°F

Happy Valley-Goose Bay temperature yesterday

Maximum temperature yesterday: 54 °F (at 3:00 PM)
Minimum temperature yesterday: 32 °F (at 6:00 AM)
Average temperature yesterday: 41 °F

Past Weeks' High & Low Weather Summary

 TemperatureHumidityPressure
High64 °F (Oct 9, 2:00 PM)100% (Oct 15, 3:00 AM)30.49 "Hg (Oct 15, 3:00 AM)
Low25 °F (Oct 22, 5:00 AM)28% (Oct 23, 4:00 PM)29.08 "Hg (Oct 20, 4:00 PM)
Average42 °F75%29.87 "Hg
* Reported Oct 9 2:00 PM — Oct 24 2:00 PM, Happy Valley-Goose Bay, Weather by CustomWeather, © 2014

Note: Actual official high and low records may vary slightly from our data, if they occured in-between our weather recording intervals... More about our weather records

Advertising

Happy Valley-Goose Bay weather history for previous 24 hours

 ConditionsComfort  
Time TempWeatherWind HumidityBarometerVisibility
2:00 PM
Oct 24
46 °FPassing clouds.8 mph57%30.06 "Hg15 mi
1:00 PM45 °FPassing clouds.6 mph57%30.09 "Hg15 mi
12:00 PM45 °FPassing clouds.2 mph53%30.11 "Hg15 mi
11:00 AM41 °FPassing clouds.No wind61%30.12 "Hg15 mi
10:00 AM37 °FPassing clouds.3 mph65%30.13 "Hg15 mi
9:00 AM34 °FPassing clouds.2 mph70%30.14 "Hg15 mi
8:00 AM30 °FPassing clouds.6 mph69%30.13 "Hg15 mi
7:00 AM30 °FPassing clouds.3 mph69%30.13 "Hg15 mi
6:00 AM34 °FClear.9 mph65%30.11 "Hg15 mi
5:00 AM32 °FClear.9 mph69%30.12 "Hg15 mi
4:00 AM36 °FClear.8 mph60%30.12 "Hg15 mi
3:00 AM34 °FPassing clouds.5 mph60%30.12 "Hg15 mi
2:00 AM37 °FClear.8 mph56%30.12 "Hg15 mi
1:00 AM37 °FClear.7 mph52%30.12 "Hg15 mi
12:00 AM41 °FClear.8 mph45%30.11 "Hg15 mi
11:00 PM
Oct 23
39 °FPassing clouds.5 mph52%30.12 "Hg15 mi
10:00 PM41 °FPassing clouds.9 mph49%30.12 "Hg15 mi
9:00 PM41 °FPassing clouds.5 mph49%30.13 "Hg15 mi
8:00 PM45 °FPassing clouds.8 mph42%30.13 "Hg15 mi
7:00 PM46 °FPassing clouds.12 mph43%30.13 "Hg15 mi
6:00 PM50 °FPartly sunny.7 mph35%30.11 "Hg15 mi
5:00 PM54 °FPassing clouds.14 mph28%30.11 "Hg15 mi
4:00 PM54 °FPassing clouds.17 mph28%30.13 "Hg15 mi
Weather by CustomWeather, © 2014

See weather overviewHow to use our weather pages